Zurück zum Katalog

STARLINK-2486

AktivKommunikationVLEO
NORAD 48143·PAYLOAD·🇺🇸 United States

Gestartet Apr 7, 2021 von Cape Canaveral Space Force Station

Loading…

Nächste Überflüge (nächste 24 Stunden)

TLE

AktuellSource: CelesTrak SupGP

Epoche: Sep 14, 2026, 21:28 UTC

1 48143C 21027BD  26257.89493056  .00060530  00000+0  11314-2 0  2570
2 48143  53.1519 290.3500 0004870  29.6815 346.0664 15.48100817    10

Verfolge STARLINK-2486 in Echtzeit mit AllMySat

Download on the App Store